EW1928 Torre del campo ES current weather conditions

sailwx.info

Wind from 274 at 3 knots gusting 7

Air temperature 18.9° C
Dewpoint 13.3° C

Last reported at 2020-Sep-19 07:57 UTC.
Time now 2020-Sep-19 08:45 UTC

Location: N 37°47' W 003°54'.
View on Google Maps.

See reports from other nearby stations

  
Tides and Currents Weather Stations Pressure Air Temp Water Temp Dewpoint Dewpoint Depression Visibility Wind Speed Wind Dir Waves Ship Positions
date/time (UTC)wind fromknots sea level pressurealtimeterstation pressurevisibilityair tempwater tempwave heightnotes
2020-Sep-19 07:57 274 3 gusting 7 18.9
2020-Sep-19 07:48 256 4 gusting 9 18.9
2020-Sep-19 07:39 231 4 gusting 9 18.9
2020-Sep-19 07:30 244 2 gusting 6 18.9
2020-Sep-19 07:21 241 2 gusting 7 18.9
2020-Sep-19 07:12 215 2 gusting 6 18.3
2020-Sep-19 07:03 229 4 gusting 6 17.8
2020-Sep-19 06:54 238 5 gusting 7 17.8
2020-Sep-19 06:45 247 4 gusting 7 17.8
2020-Sep-19 06:36 225 4 gusting 9 17.8
2020-Sep-19 06:27 229 4 gusting 9 17.8
2020-Sep-19 06:18 262 3 gusting 8 17.8
2020-Sep-19 06:09 252 5 gusting 13 17.8
2020-Sep-19 06:00 233 4 gusting 9 17.8
2020-Sep-19 05:51 212 4 gusting 9 17.8
2020-Sep-19 05:42 220 4 gusting 8 17.8
2020-Sep-19 05:33 216 6 gusting 13 17.8
2020-Sep-19 05:24 223 4 gusting 9 17.8
2020-Sep-19 05:15 254 4 gusting 12 18.3
2020-Sep-19 05:06 243 4 gusting 10 18.3
2020-Sep-19 04:57 251 4 gusting 12 18.3
2020-Sep-19 04:48 242 5 gusting 12 17.8
2020-Sep-19 04:39 264 3 gusting 6 17.8
2020-Sep-19 04:30 270 2 gusting 5 17.8
2020-Sep-19 04:21 243 2 gusting 6 17.8
2020-Sep-19 04:12 283 1 gusting 5 17.8
2020-Sep-19 04:03 284 2 gusting 8 17.8
2020-Sep-19 03:54 270 2 gusting 6 17.8
2020-Sep-19 03:45 257 2 gusting 6 17.8
2020-Sep-19 03:36 259 4 gusting 9 17.8
2020-Sep-19 03:27 298 2 gusting 6 17.8
2020-Sep-19 03:18 314 2 gusting 8 17.8
2020-Sep-19 03:09 314 3 gusting 8 17.8
2020-Sep-19 02:42 270 3 gusting 9 17.8
2020-Sep-19 02:33 259 4 gusting 10 18.3
2020-Sep-19 02:24 237 5 gusting 9 18.3
2020-Sep-19 02:15 257 6 gusting 13 18.3
2020-Sep-19 02:06 232 5 gusting 8 18.3
2020-Sep-19 01:57 262 6 gusting 11 18.3
2020-Sep-19 01:48 245 6 gusting 11 18.3
2020-Sep-19 01:39 251 6 gusting 13 18.3
2020-Sep-19 01:30 249 5 gusting 10 18.9
2020-Sep-19 01:21 228 6 gusting 13 18.9
2020-Sep-19 01:12 225 5 gusting 13 18.9
2020-Sep-19 01:03 214 4 gusting 8 18.9
2020-Sep-19 00:54 234 4 gusting 9 18.9
2020-Sep-19 00:45 232 5 gusting 13 18.9
2020-Sep-19 00:36 237 5 gusting 13 18.9
2020-Sep-19 00:27 225 4 gusting 9 18.9
2020-Sep-19 00:18 198 4 gusting 8 18.9
2020-Sep-19 00:09 210 6 gusting 10 18.9
2020-Sep-19 00:00 200 5 gusting 11 19.4
2020-Sep-18 23:51 201 6 gusting 15 19.4
2020-Sep-18 23:42 195 5 gusting 13 19.4
2020-Sep-18 23:33 202 4 gusting 10 19.4
2020-Sep-18 23:24 221 5 gusting 11 19.4
2020-Sep-18 23:15 226 5 gusting 9 19.4
2020-Sep-18 23:06 251 6 gusting 13 19.4
2020-Sep-18 22:57 217 4 gusting 11 19.4
2020-Sep-18 22:48 191 5 gusting 9 19.4
2020-Sep-18 22:39 229 5 gusting 14 19.4
2020-Sep-18 22:30 221 6 gusting 13 20.0
2020-Sep-18 22:21 225 6 gusting 15 20.0
2020-Sep-18 22:12 244 4 gusting 10 20.0
2020-Sep-18 22:03 252 3 gusting 7 20.0
2020-Sep-18 21:54 235 3 gusting 6 20.0
2020-Sep-18 21:45 285 3 gusting 8 20.0
2020-Sep-18 21:36 282 3 gusting 8 20.6
2020-Sep-18 21:27 243 5 gusting 10 20.6
2020-Sep-18 21:18 230 6 gusting 13 20.6
2020-Sep-18 21:09 231 6 gusting 13 20.6
2020-Sep-18 21:00 229 6 gusting 14 20.6
2020-Sep-18 20:51 229 6 gusting 14 20.6
2020-Sep-18 20:42 237 6 gusting 14 20.6
2020-Sep-18 20:33 230 6 gusting 13 20.6
2020-Sep-18 20:24 228 6 gusting 16 21.1
2020-Sep-18 20:15 221 8 gusting 16 21.1
2020-Sep-18 20:06 282 9 gusting 18 21.1
2020-Sep-18 19:57 224 9 gusting 19 21.1
2020-Sep-18 19:48 239 9 gusting 16 21.1
2020-Sep-18 19:39 249 9 gusting 17 21.1
2020-Sep-18 19:30 234 7 gusting 16 21.1
2020-Sep-18 19:21 241 9 gusting 17 21.7
2020-Sep-18 19:12 258 10 gusting 19 21.7
2020-Sep-18 19:03 239 9 gusting 18 21.7
2020-Sep-18 18:54 244 8 gusting 19 21.7
2020-Sep-18 18:45 223 9 gusting 18 21.7
2020-Sep-18 18:36 206 8 gusting 16 22.2
2020-Sep-18 18:27 209 8 gusting 20 22.2
2020-Sep-18 18:18 202 6 gusting 14 22.8
2020-Sep-18 18:09 215 7 gusting 13 22.8
2020-Sep-18 18:00 248 8 gusting 19 23.3
2020-Sep-18 17:51 247 9 gusting 17 23.3
2020-Sep-18 17:42 213 8 gusting 15 23.3
2020-Sep-18 17:33 229 8 gusting 19 23.3
2020-Sep-18 17:24 266 9 gusting 18 23.3
2020-Sep-18 17:15 252 10 gusting 19 23.9
2020-Sep-18 17:06 236 8 gusting 18 23.9
2020-Sep-18 16:57 253 9 gusting 17 24.4
2020-Sep-18 16:48 248 10 gusting 19 24.4
2020-Sep-18 16:39 222 10 gusting 20 24.4
2020-Sep-18 16:30 234 9 gusting 19 25.0
2020-Sep-18 16:21 231 11 gusting 23 25.0
2020-Sep-18 16:12 250 12 gusting 23 25.0
2020-Sep-18 16:03 243 13 gusting 21 25.0
2020-Sep-18 15:54 260 12 gusting 25 25.0
2020-Sep-18 15:45 229 13 gusting 24 25.0
2020-Sep-18 15:36 230 13 gusting 25 25.0
2020-Sep-18 15:27 232 13 gusting 23 25.0
2020-Sep-18 15:18 242 13 gusting 28 25.0
2020-Sep-18 15:09 263 12 gusting 21 25.0
2020-Sep-18 15:00 254 11 gusting 24 24.4
2020-Sep-18 14:42 266 13 gusting 24 25.0
2020-Sep-18 14:33 247 15 gusting 29 25.0
2020-Sep-18 14:24 232 14 gusting 26 24.4
2020-Sep-18 13:57 234 13 gusting 26 23.9
2020-Sep-18 13:48 241 13 gusting 26 23.9
2020-Sep-18 13:39 253 12 gusting 23 23.9
2020-Sep-18 13:30 286 8 gusting 15 23.9
2020-Sep-18 13:21 246 9 gusting 19 23.9
2020-Sep-18 13:12 236 9 gusting 17 24.4
2020-Sep-18 13:03 250 11 gusting 21 24.4
2020-Sep-18 12:54 221 13 gusting 27 24.4
2020-Sep-18 12:45 214 8 gusting 19 25.0
2020-Sep-18 12:36 227 9 gusting 19 25.0
2020-Sep-18 12:27 233 7 gusting 19 25.0
2020-Sep-18 12:18 212 9 gusting 19 25.0
2020-Sep-18 12:09 226 7 gusting 18 25.6
2020-Sep-18 12:00 245 9 gusting 18 25.0
2020-Sep-18 11:51 253 8 gusting 15 25.0
2020-Sep-18 11:42 247 7 gusting 17 25.0
2020-Sep-18 11:33 269 8 gusting 17 25.0
2020-Sep-18 11:24 301 6 gusting 14 25.0
2020-Sep-18 11:15 276 4 gusting 11 25.0
2020-Sep-18 11:06 215 6 gusting 11 24.4
2020-Sep-18 10:57 223 5 gusting 12 23.9
2020-Sep-18 10:48 238 6 gusting 12 23.9
2020-Sep-18 10:39 228 7 gusting 14 23.9
2020-Sep-18 10:30 233 6 gusting 14 23.9
2020-Sep-18 10:21 229 8 gusting 15 23.3
2020-Sep-18 10:12 245 9 gusting 15 23.3
2020-Sep-18 10:03 227 9 gusting 19 23.3
2020-Sep-18 09:54 235 8 gusting 19 23.3
2020-Sep-18 09:45 220 8 gusting 19 23.3
2020-Sep-18 09:36 220 7 gusting 15 23.3
2020-Sep-18 09:27 221 6 gusting 18 23.9
2020-Sep-18 09:18 224 7 gusting 18 23.9
2020-Sep-18 09:09 201 8 gusting 18 23.3
2020-Sep-18 09:00 193 8 gusting 17 22.8
2020-Sep-18 08:51 299 8 gusting 23 22.8
2020-Sep-18 08:42 201 8 gusting 19 22.8
2020-Sep-18 08:33 186 6 gusting 19 22.8
2020-Sep-18 08:24 187 6 gusting 19 22.8
2020-Sep-18 08:15 224 8 gusting 19 22.2
2020-Sep-18 08:06 188 11 gusting 23 22.2
2020-Sep-18 07:57 171 7 gusting 17 22.2
2020-Sep-18 07:48 172 6 gusting 15 22.2
2020-Sep-18 07:39 182 8 gusting 16 21.7
2020-Sep-18 07:30 192 6 gusting 17 22.2
2020-Sep-18 07:21 272 7 gusting 21 22.2
2020-Sep-18 07:12 205 5 gusting 12 21.7
2020-Sep-18 07:03 178 6 gusting 13 21.7
2020-Sep-18 06:54 203 6 gusting 13 21.7
2020-Sep-18 06:45 172 3 gusting 10 21.7
2020-Sep-18 06:36 193 1 gusting 5 21.1
2020-Sep-18 06:27 195 1 gusting 4 21.1
2020-Sep-18 06:18 200 3 gusting 6 21.1
2020-Sep-18 06:09 182 4 gusting 8 21.1
2020-Sep-18 06:00 215 5 gusting 9 21.1
2020-Sep-18 05:51 210 5 gusting 10 21.1
2020-Sep-18 05:42 246 6 gusting 11 21.1
2020-Sep-18 05:33 201 5 gusting 11 21.1
2020-Sep-18 05:24 221 5 gusting 10 21.1
2020-Sep-18 05:15 242 4 gusting 8 21.1
2020-Sep-18 05:06 213 6 gusting 17 21.1
2020-Sep-18 04:57 201 6 gusting 13 21.1
2020-Sep-18 04:48 201 7 gusting 19 21.1
2020-Sep-18 04:39 179 7 gusting 19 21.1
2020-Sep-18 04:30 219 8 gusting 19 21.1
2020-Sep-18 04:21 203 11 gusting 21 21.1
2020-Sep-18 04:12 206 11 gusting 20 21.1
2020-Sep-18 04:03 202 12 gusting 28 21.1
2020-Sep-18 03:54 192 11 gusting 23 21.1
2020-Sep-18 03:45 177 13 gusting 25 21.7
2020-Sep-18 03:36 197 12 gusting 25 21.7
2020-Sep-18 03:27 197 13 gusting 23 21.7
2020-Sep-18 03:18 196 12 gusting 32 21.7
2020-Sep-18 03:09 190 14 gusting 32 21.7
2020-Sep-18 03:00 215 13 gusting 29 21.7
2020-Sep-18 02:51 201 14 gusting 26 21.7
2020-Sep-18 02:42 196 13 gusting 28 21.7
2020-Sep-18 02:33 197 10 gusting 23 21.7
2020-Sep-18 02:24 196 11 gusting 21 21.7
2020-Sep-18 02:15 223 13 gusting 28 22.2
2020-Sep-18 02:06 222 14 gusting 28 22.2
2020-Sep-18 01:57 178 13 gusting 26 22.2
2020-Sep-18 01:48 201 13 gusting 32 22.2
2020-Sep-18 01:39 241 13 gusting 26 21.7
2020-Sep-18 01:30 212 13 gusting 26 22.2
2020-Sep-18 01:21 220 13 gusting 38 22.2
2020-Sep-18 01:12 183 14 gusting 33 22.2
2020-Sep-18 01:03 202 13 gusting 26 22.2
2020-Sep-18 00:54 212 13 gusting 24 22.2
2020-Sep-18 00:36 189 13 gusting 29 22.2
2020-Sep-18 00:27 215 13 gusting 23 22.2
2020-Sep-18 00:18 209 12 gusting 25 22.2
2020-Sep-18 00:09 139 7 gusting 18 22.2
2020-Sep-18 00:00 219 10 gusting 22 22.2
2020-Sep-17 23:51 198 11 gusting 22 22.2
2020-Sep-17 23:42 206 13 gusting 31 22.8
2020-Sep-17 23:33 199 12 gusting 31 22.2
2020-Sep-17 23:24 223 13 gusting 27 22.2
2020-Sep-17 23:15 223 12 gusting 22 22.8
2020-Sep-17 23:06 198 11 gusting 23 22.8
2020-Sep-17 22:57 179 11 gusting 19 22.8
2020-Sep-17 22:48 204 14 gusting 26 22.8
2020-Sep-17 22:39 250 12 gusting 23 22.8
2020-Sep-17 22:30 186 11 gusting 24 22.8
2020-Sep-17 22:21 205 12 gusting 29 22.8
2020-Sep-17 22:12 187 12 gusting 29 22.8
2020-Sep-17 22:03 216 10 gusting 21 22.8
2020-Sep-17 21:54 230 13 gusting 24 22.8
2020-Sep-17 21:45 201 10 gusting 22 22.8
2020-Sep-17 21:36 186 12 gusting 23 22.8
2020-Sep-17 21:27 224 13 gusting 26 22.8
2020-Sep-17 21:18 211 12 gusting 24 22.8
2020-Sep-17 21:09 210 13 gusting 26 22.8
2020-Sep-17 21:00 233 13 gusting 29 23.3
2020-Sep-17 20:51 231 11 gusting 26 23.3
2020-Sep-17 20:42 225 13 gusting 26 23.9
2020-Sep-17 20:33 208 12 gusting 22 23.9
2020-Sep-17 20:24 202 12 gusting 22 24.4
2020-Sep-17 20:15 202 12 gusting 22 24.4
2020-Sep-17 20:06 187 10 gusting 22 24.4
2020-Sep-17 19:57 198 10 gusting 23 24.4
2020-Sep-17 19:48 211 12 gusting 25 24.4
2020-Sep-17 19:39 199 13 gusting 26 24.4
2020-Sep-17 19:30 214 13 gusting 26 24.4
2020-Sep-17 19:21 200 11 gusting 22 25.0
2020-Sep-17 19:12 237 12 gusting 23 25.6
2020-Sep-17 19:03 284 13 gusting 26 25.6
2020-Sep-17 18:54 197 13 gusting 26 26.1
2020-Sep-17 18:45 232 9 gusting 19 26.7
2020-Sep-17 18:36 202 8 gusting 25 26.7
2020-Sep-17 18:27 204 10 gusting 25 27.2
2020-Sep-17 18:18 214 10 gusting 22 27.2
2020-Sep-17 18:09 228 8 gusting 18 27.2
2020-Sep-17 18:00 206 7 gusting 18 27.2
2020-Sep-17 17:51 212 6 gusting 14 27.2
2020-Sep-17 17:42 216 6 gusting 14 27.2
2020-Sep-17 17:33 222 6 gusting 16 27.2
2020-Sep-17 17:24 219 7 gusting 18 27.2
2020-Sep-17 17:15 213 6 gusting 13 27.2
2020-Sep-17 17:06 205 4 gusting 10 26.7
2020-Sep-17 16:57 208 6 gusting 16 26.7
2020-Sep-17 16:48 217 3 gusting 13 26.1
2020-Sep-17 16:39 199 2 gusting 6 26.1
2020-Sep-17 16:30 178 4 gusting 8 25.6
2020-Sep-17 16:21 184 4 gusting 8 25.6
2020-Sep-17 16:12 196 6 gusting 13 26.1
2020-Sep-17 16:03 176 7 gusting 14 26.7
2020-Sep-17 15:54 221 4 gusting 7 26.1
2020-Sep-17 15:45 208 3 gusting 6 25.6
2020-Sep-17 15:36 191 3 gusting 6 25.0
2020-Sep-17 15:27 262 7 gusting 20 25.0
2020-Sep-17 15:18 273 6 gusting 13 28.9
2020-Sep-17 15:09 281 3 gusting 8 29.4
2020-Sep-17 15:00 264 3 gusting 6 29.4
2020-Sep-17 14:51 221 5 gusting 13 29.4
2020-Sep-17 14:42 228 4 gusting 9 28.9
2020-Sep-17 14:33 233 4 gusting 9 29.4
2020-Sep-17 14:24 267 4 gusting 8 29.4
2020-Sep-17 14:15 235 4 gusting 10 29.4
2020-Sep-17 14:06 231 5 gusting 14 29.4
2020-Sep-17 13:57 231 4 gusting 8 29.4
2020-Sep-17 13:48 253 5 gusting 12 29.4
2020-Sep-17 13:39 238 6 gusting 13 29.4
2020-Sep-17 13:30 232 6 gusting 17 28.9
2020-Sep-17 13:21 263 6 gusting 18 28.9
2020-Sep-17 13:12 232 9 gusting 18 28.3
2020-Sep-17 13:03 236 10 gusting 17 27.8
2020-Sep-17 12:54 282 6 gusting 13 27.8
2020-Sep-17 12:45 259 7 gusting 13 27.8
2020-Sep-17 12:36 255 7 gusting 13 27.8
2020-Sep-17 12:27 254 6 gusting 13 27.8
2020-Sep-17 12:18 232 6 gusting 12 27.8
2020-Sep-17 12:09 243 7 gusting 16 27.2
2020-Sep-17 12:00 235 11 gusting 19 27.2
2020-Sep-17 11:51 247 11 gusting 16 27.2
2020-Sep-17 11:42 219 10 gusting 17 27.2
2020-Sep-17 11:33 276 8 gusting 17 27.2
2020-Sep-17 11:24 275 7 gusting 21 26.7
2020-Sep-17 11:15 230 7 gusting 14 26.7
2020-Sep-17 11:06 246 7 gusting 15 26.7
2020-Sep-17 10:57 214 7 gusting 13 26.7
2020-Sep-17 10:48 224 8 gusting 18 26.1
2020-Sep-17 10:39 234 9 gusting 17 26.1
2020-Sep-17 10:30 220 6 gusting 14 26.1
2020-Sep-17 10:21 214 7 gusting 18 26.1
2020-Sep-17 10:12 195 7 gusting 18 26.7
2020-Sep-17 10:03 217 7 gusting 17 26.1
2020-Sep-17 09:54 234 8 gusting 17 26.1
2020-Sep-17 09:45 242 7 gusting 15 26.1
2020-Sep-17 09:36 244 7 gusting 14 26.1
2020-Sep-17 09:27 206 6 gusting 14 25.6
2020-Sep-17 09:18 247 7 gusting 17 25.6
2020-Sep-17 09:09 222 6 gusting 17 25.0
2020-Sep-17 09:00 208 7 gusting 16 25.0
2020-Sep-17 08:51 196 5 gusting 13 25.0
2020-Sep-17 08:42 218 6 gusting 14 25.0
2020-Sep-17 08:33 207 7 gusting 13 25.0
2020-Sep-17 08:24 216 6 gusting 14 24.4
2020-Sep-17 08:15 201 6 gusting 13 24.4
2020-Sep-17 08:06 206 6 gusting 13 24.4